Temp
6 5 6 6 6 6 6 6 6 6 6 6 5 5 4 4 3 4 2 3 3 3 5 5 5 6 6 6 6 6 6 6 6 6 6 6 5 6 6 6 5 5 5
4 4 5 4 4 4 5 5 5 5 5 5 5 4 4 3 3 3 2 3 2 3 4 4 5 5 6 5 6 6 6 6 5 6 5 5 5 5 5 5 5 6 6
3 2 3 4 4 4 4 4 4 4 4 4 4 4 3 3 3 3 3 2 2 3 3 3 4 4 5 5 5 5 5 5 5 5 5 5 5 6 5 5 5 5 5
2 2 2 3 4 4 4 3 2 3 4 4 4 4 4 4 3 2 2 3 2 3 3 3 3 3 4 4 5 5 5 5 5 4 4 5 5 4 5 5 5 5 5
3 2 2 2 3 4 4 4 2 1 3 3 3 3 3 3 2 2 2 2 2 2 1 2 2 3 3 4 4 4 5 4 4 4 4 4 4 4 5 5 5 5 5
2 2 2 2 3 3 3 3 3 1 2 2 3 3 2 2 2 2 2 2 2 2 2 1 2 2 2 3 3 4 4 4 3 3 3 4 3 3 3 4 4 4 4
1 1 2 2 2 2 2 2 2 2 2 2 3 2 2 1 1 1 1 1 1 2 2 2 2 2 2 2 2 3 3 3 3 3 3 3 3 3 3 3 3 4 4
1 1 1 1 1 2 2 2 2 2 2 2 1 1 2 1 1 1 2 2 2 2 1 1 1 1 1 1 2 2 3 3 3 3 3 3 3 3 3 3 3 3 3
-1 -0 0 1 1 2 2 2 1 1 2 3 1 1 1 1 2 1 1 1 1 1 2 1 0 1 1 1 1 1 2 2 2 3 3 3 3 3 2 2 2 2 3
-2 -1 -0 1 1 1 2 2 1 1 1 1 1 1 1 1 2 2 2 2 2 1 2 1 1 1 1 0 2 1 1 2 2 2 2 2 2 2 2 2 2 2 2
-3 -2 -1 0 0 -1 -1 -1 -0 -1 -0 -0 -0 0 1 0 0 1 2 2 2 2 2 1 1 1 1 0 -0 1 1 1 1 1 1 2 2 2 1 2 1 1 2
-5 -4 -3 -2 -3 -2 -2 -2 -2 -2 -2 -1 0 0 -0 0 -0 1 1 2 2 2 2 1 1 0 1 1 0 0 -0 1 1 1 1 1 1 1 1 1 1 1 1
-7 -7 -5 -5 -4 -3 -3 -3 -3 -2 -1 -1 -1 -0 -1 0 1 1 1 1 1 1 1 1 1 0 1 0 -0 -0 -0 -0 0 -0 0 -0 -0 -0 1 -0 1 1 0
-7 -7 -6 -5 -4 -4 -3 -2 -2 -2 -1 -1 -0 -1 -1 -1 -1 1 1 0 0 1 1 1 0 0 0 0 -0 -0 -1 -1 -1 -1 -1 -1 -1 -0 -0 -0 0 0 0
-8 -7 -6 -6 -5 -4 -3 -4 -3 -2 -2 -1 -1 -2 -2 -2 -1 -1 -1 -1 -1 0 0 0 0 -1 -1 -0 -0 -1 -2 -1 -2 -1 -1 -1 -0 -0 -0 0 -0 -0 -0
-10 -9 -8 -6 -6 -5 -4 -4 -3 -4 -2 -3 -2 -2 -2 -2 -2 -1 -1 -1 -1 -1 -1 -1 -2 -2 -2 -2 -2 -1 -1 -2 -1 -1 -2 -1 -1 -1 -1 -1 -1 -0 -0
-11 -10 -9 -8 -7 -6 -5 -4 -4 -4 -3 -3 -3 -3 -2 -2 -2 -2 -2 -1 -2 -2 -1 -2 -2 -2 -2 -2 -2 -2 -3 -3 -3 -3 -3 -2 -1 -1 -1 -1 -1 -1 -1
-13 -11 -11 -10 -9 -7 -6 -5 -4 -4 -4 -4 -3 -2 -3 -2 -3 -2 -3 -3 -2 -2 -3 -2 -2 -2 -2 -2 -2 -2 -3 -2 -2 -2 -2 -2 -2 -2 -2 -2 -1 -2 -2
-13 -12 -12 -11 -10 -9 -8 -6 -5 -5 -5 -5 -4 -3 -3 -3 -3 -3 -3 -3 -2 -3 -2 -3 -2 -2 -3 -3 -2 -3 -3 -3 -3 -3 -3 -2 -2 -2 -2 -2 -3 -2 -2
-14 -13 -13 -12 -12 -10 -9 -8 -7 -6 -5 -5 -4 -5 -4 -3 -4 -3 -3 -3 -3 -3 -3 -2 -2 -3 -2 -2 -2 -3 -2 -3 -2 -3 -2 -3 -2 -2 -3 -3 -1 -2 -3
-15 -15 -14 -13 -13 -11 -10 -9 -8 -7 -7 -7 -6 -5 -4 -4 -3 -3 -4 -3 -3 -3 -2 -3 -3 -3 -2 -2 -1 -1 -1 -1 -1 -1 -1 -1 -1 -1 -1 -1 -2 -2 -3
-16 -16 -15 -14 -13 -12 -12 -11 -9 -8 -8 -7 -7 -7 -7 -6 -6 -5 -4 -4 -3 -3 -3 -2 -2 -2 -2 -2 -1 -1 -1 -1 -1 -1 -1 -0 -1 -1 -1 -2 -1 -2 -3
-16 -16 -15 -15 -14 -13 -13 -12 -10 -9 -9 -8 -8 -7 -7 -7 -6 -6 -5 -4 -4 -3 -3 -3 -3 -2 -2 -2 -2 -2 -2 -2 -2 -2 -2 -1 -1 -1 -2 -3 -4 -4 -4
-17 -16 -16 -16 -15 -14 -13 -12 -11 -10 -9 -9 -9 -8 -8 -7 -7 -6 -6 -5 -5 -4 -4 -4 -4 -3 -3 -3 -3 -3 -2 -2 -2 -2 -1 -1 -2 -2 -3 -4 -4 -5 -5
-18 -17 -16 -16 -16 -15 -14 -13 -12 -12 -11 -10 -10 -9 -9 -8 -8 -7 -6 -6 -6 -5 -5 -5 -4 -3 -3 -4 -3 -3 -3 -2 -2 -2 -2 -2 -2 -2 -3 -4 -5 -5 -5
-18 -18 -17 -17 -17 -16 -16 -15 -13 -13 -13 -12 -12 -10 -10 -9 -9 -8 -8 -7 -6 -6 -6 -5 -5 -5 -5 -5 -4 -4 -3 -3 -3 -2 -2 -3 -3 -3 -3 -3 -5 -7 -7
Height
3067 3068 3072 3075 3078 3081 3084 3087 3091 3094 3096 3098 3101 3105 3109 3114 3119 3123 3125 3129 3133 3136 3139 3142 3146 3149 3151 3153 3155 3157 3159 3163 3167 3169 3170 3172 3174 3176 3177 3180 3182 3183 3184
3058 3059 3061 3066 3071 3076 3080 3083 3086 3089 3092 3094 3097 3099 3104 3108 3114 3116 3119 3123 3128 3132 3134 3137 3141 3144 3146 3148 3150 3153 3155 3158 3162 3164 3167 3168 3171 3172 3174 3175 3178 3180 3181
3048 3051 3055 3060 3064 3068 3073 3077 3081 3084 3087 3089 3091 3094 3098 3102 3105 3109 3113 3116 3121 3126 3129 3132 3134 3138 3141 3144 3146 3149 3152 3154 3158 3160 3162 3164 3166 3168 3170 3172 3174 3176 3178
3041 3044 3048 3053 3056 3060 3065 3069 3075 3078 3081 3084 3085 3087 3091 3094 3099 3104 3109 3113 3116 3119 3123 3127 3129 3132 3136 3139 3142 3145 3147 3149 3152 3154 3157 3160 3162 3162 3166 3168 3170 3172 3174
3032 3036 3040 3044 3049 3054 3058 3063 3067 3070 3074 3077 3079 3082 3085 3090 3094 3098 3101 3105 3110 3112 3117 3121 3123 3127 3130 3133 3137 3140 3143 3145 3146 3149 3152 3155 3158 3159 3161 3163 3166 3167 3169
3023 3028 3033 3037 3041 3046 3050 3054 3058 3062 3066 3070 3073 3076 3080 3084 3088 3091 3094 3098 3102 3106 3110 3113 3117 3120 3124 3127 3131 3133 3137 3140 3142 3144 3146 3150 3152 3156 3158 3160 3161 3162 3163
3017 3021 3026 3030 3035 3039 3043 3047 3051 3055 3059 3062 3065 3070 3074 3078 3082 3085 3089 3092 3096 3099 3103 3107 3110 3113 3117 3121 3124 3127 3129 3134 3137 3139 3142 3145 3147 3149 3152 3154 3155 3156 3158
3011 3015 3019 3023 3028 3033 3036 3039 3044 3048 3052 3055 3059 3063 3067 3071 3075 3078 3081 3085 3089 3093 3098 3100 3102 3105 3109 3113 3117 3120 3123 3127 3130 3133 3136 3139 3142 3143 3145 3148 3150 3151 3153
3006 3010 3013 3017 3021 3025 3029 3031 3035 3039 3043 3048 3052 3056 3061 3064 3068 3072 3074 3077 3081 3085 3088 3091 3093 3096 3098 3103 3107 3112 3117 3119 3123 3127 3130 3132 3135 3137 3139 3141 3143 3145 3147
3001 3005 3009 3012 3013 3016 3021 3025 3029 3032 3038 3042 3045 3049 3053 3057 3061 3064 3067 3070 3073 3076 3079 3082 3083 3085 3088 3094 3099 3104 3108 3111 3115 3119 3122 3125 3128 3130 3132 3135 3137 3138 3141
2996 2999 3002 3005 3008 3011 3016 3019 3023 3027 3031 3036 3040 3043 3047 3050 3053 3056 3059 3061 3064 3067 3069 3073 3075 3078 3080 3085 3089 3093 3098 3103 3107 3111 3114 3118 3121 3123 3124 3128 3130 3132 3134
2993 2995 2997 3000 3003 3006 3010 3015 3018 3022 3026 3031 3035 3036 3040 3043 3046 3050 3051 3054 3055 3057 3060 3063 3066 3069 3072 3075 3078 3082 3090 3095 3098 3103 3106 3110 3113 3114 3117 3120 3122 3125 3127
2989 2992 2994 2996 3000 3003 3005 3010 3013 3018 3022 3025 3029 3031 3035 3040 3042 3043 3043 3044 3046 3049 3052 3054 3059 3061 3064 3066 3069 3073 3081 3085 3091 3095 3099 3103 3105 3107 3110 3112 3115 3117 3118
2985 2987 2991 2993 2996 2999 3003 3006 3009 3010 3015 3021 3022 3026 3029 3034 3036 3036 3037 3038 3039 3040 3044 3047 3051 3054 3056 3058 3061 3064 3072 3076 3081 3086 3090 3093 3097 3101 3103 3105 3108 3109 3110
2981 2983 2985 2989 2992 2995 2998 3002 3004 3008 3009 3014 3016 3019 3025 3028 3029 3032 3031 3032 3034 3035 3036 3038 3040 3043 3046 3050 3053 3055 3059 3067 3071 3077 3081 3086 3090 3091 3094 3096 3099 3101 3101
2978 2978 2980 2983 2987 2991 2993 2996 2998 3002 3007 3010 3014 3015 3021 3024 3025 3027 3029 3031 3032 3031 3032 3033 3035 3036 3039 3041 3044 3047 3050 3057 3062 3067 3072 3078 3082 3084 3086 3088 3090 3092 3092
2977 2976 2977 2980 2983 2986 2989 2991 2993 2996 3002 3005 3008 3011 3014 3018 3021 3023 3025 3027 3029 3030 3030 3032 3032 3033 3036 3038 3040 3041 3045 3049 3055 3059 3066 3070 3073 3076 3078 3079 3081 3083 3083
2975 2975 2975 2977 2979 2981 2984 2987 2990 2993 2997 3001 3003 3007 3008 3012 3015 3017 3019 3021 3025 3026 3028 3030 3031 3033 3034 3038 3039 3042 3045 3047 3050 3052 3058 3060 3063 3063 3066 3067 3068 3071 3073
2974 2975 2976 2976 2976 2977 2979 2982 2986 2989 2992 2995 2999 3003 3004 3007 3011 3014 3017 3019 3020 3023 3025 3026 3030 3031 3032 3035 3037 3039 3041 3044 3045 3047 3048 3052 3054 3056 3058 3060 3061 3063 3064
2973 2974 2975 2974 2975 2975 2976 2978 2980 2983 2986 2989 2993 2997 2999 3003 3006 3010 3012 3016 3018 3019 3022 3024 3027 3030 3030 3033 3034 3037 3039 3042 3041 3044 3046 3047 3049 3051 3052 3051 3053 3055 3058
2973 2974 2973 2973 2973 2974 2974 2975 2977 2979 2982 2984 2987 2991 2994 2998 3000 3004 3007 3011 3014 3016 3019 3021 3023 3025 3027 3029 3032 3034 3037 3038 3039 3041 3042 3043 3044 3045 3046 3047 3047 3049 3050
2975 2974 2972 2972 2971 2972 2973 2974 2973 2975 2978 2981 2984 2987 2990 2993 2996 2999 3002 3005 3008 3011 3014 3017 3020 3022 3023 3026 3028 3030 3032 3033 3034 3035 3036 3037 3037 3038 3039 3040 3041 3042 3044
2973 2971 2970 2971 2970 2971 2973 2973 2971 2972 2974 2977 2980 2983 2987 2990 2993 2996 2998 3001 3003 3006 3009 3013 3015 3017 3019 3020 3022 3024 3025 3026 3027 3028 3029 3030 3031 3032 3033 3034 3034 3036 3037
2971 2970 2970 2970 2970 2969 2970 2971 2970 2970 2971 2973 2976 2978 2981 2985 2988 2991 2994 2997 3000 3002 3004 3006 3008 3011 3013 3014 3016 3017 3018 3020 3021 3023 3023 3024 3025 3026 3026 3026 3027 3029 3031
2969 2968 2968 2969 2969 2969 2967 2969 2971 2970 2969 2971 2973 2975 2977 2979 2982 2985 2988 2991 2994 2997 2999 3001 3003 3004 3007 3009 3011 3012 3012 3013 3014 3015 3016 3017 3018 3018 3018 3018 3020 3020 3023
2968 2968 2968 2967 2969 2969 2968 2967 2968 2969 2968 2971 2973 2973 2972 2974 2977 2980 2981 2983 2986 2989 2991 2993 2995 2997 2999 3001 3003 3006 3007 3007 3008 3010 3010 3011 3012 3012 3012 3012 3013 3013 3015
Wind_Speed
24 30 32 30 27 28 27 25 24 23 25 27 29 31 34 32 29 31 29 27 25 23 26 23 24 25 26 25 25 25 25 24 22 22 23 23 22 22 21 21 21 20 19
23 27 29 29 27 25 26 25 23 22 23 25 27 29 27 28 31 34 29 29 25 26 24 27 25 27 28 28 28 26 26 24 23 23 24 25 24 24 24 23 22 22 22
30 29 30 30 29 27 26 25 23 22 22 23 27 29 31 35 35 37 34 31 29 27 28 26 26 27 28 28 28 26 26 25 23 25 27 25 26 25 25 23 23 22 21
36 36 35 35 34 33 31 27 22 22 24 25 27 30 32 32 31 31 31 30 35 35 32 28 27 28 28 29 29 28 27 27 26 26 26 26 26 26 25 24 23 22 21
42 39 37 37 37 35 34 32 28 26 24 22 27 28 31 29 28 28 31 33 34 29 25 28 30 29 29 30 30 31 29 28 29 28 27 26 27 26 25 23 22 22 22
40 43 40 36 37 36 35 35 32 30 27 26 28 30 31 30 28 26 26 28 33 30 32 33 36 33 31 30 31 31 31 30 30 30 29 28 27 23 24 23 23 24 24
35 37 39 38 38 38 37 36 35 34 30 30 31 31 32 32 29 28 28 28 28 28 26 31 37 40 40 37 32 33 32 32 31 31 30 29 29 27 27 27 28 28 25
31 32 33 35 35 37 40 42 42 39 35 33 29 31 33 33 31 30 31 33 31 28 28 29 32 34 44 40 40 36 33 33 33 32 32 30 31 30 29 29 29 28 26
31 31 31 31 30 30 32 36 40 40 38 36 32 33 33 33 32 31 31 31 31 31 33 36 39 35 40 49 39 40 35 34 34 33 33 32 32 32 32 31 30 29 29
26 28 29 29 28 27 30 35 35 38 36 30 31 31 32 31 32 32 31 32 32 32 31 30 32 37 34 44 40 42 38 36 35 34 34 34 33 33 34 32 30 30 30
20 21 23 25 27 28 28 26 32 34 34 28 28 27 30 26 29 29 27 31 31 33 31 32 34 35 34 38 48 42 40 39 37 36 35 34 33 35 33 33 31 31 31
18 18 20 21 21 29 27 32 31 29 27 32 26 25 25 27 23 26 30 33 33 34 34 27 35 33 35 43 44 55 47 41 39 36 36 35 34 34 35 35 29 31 31
18 18 19 20 22 21 21 28 29 29 30 33 34 32 30 30 31 28 23 24 31 30 33 30 35 33 36 38 36 45 42 39 38 37 36 34 35 35 35 31 31 31 33
18 19 22 21 23 24 24 25 22 29 25 36 35 24 27 30 27 22 25 25 19 25 33 38 36 34 37 45 48 46 46 39 38 37 36 36 35 34 32 32 32 33 35
17 20 23 25 23 25 29 27 32 22 34 21 31 43 24 23 25 17 18 18 17 22 23 23 27 32 32 37 43 42 52 42 40 38 38 36 35 33 34 36 34 35 37
15 18 20 24 29 25 22 23 33 32 30 27 26 20 29 21 19 18 13 13 11 11 16 15 16 20 27 22 28 41 47 48 43 40 35 36 35 34 35 34 34 39 41
10 16 18 20 23 29 31 26 22 20 36 29 31 24 23 27 29 21 22 17 15 10 11 10 13 16 14 14 13 16 35 47 39 44 39 37 35 36 36 39 44 42 41
7 11 13 16 20 22 28 34 33 32 31 26 21 19 25 29 26 32 22 21 18 16 15 13 12 10 19 18 22 21 20 21 30 41 32 32 37 46 35 35 35 42 37
4 7 7 9 14 18 22 25 28 30 32 30 29 30 24 21 22 24 25 20 19 19 18 17 19 17 11 9 12 11 14 12 14 16 23 23 25 22 24 26 30 32 24
1 4 5 6 8 12 13 17 21 24 25 26 30 34 31 27 29 30 28 27 25 21 21 20 20 19 18 16 17 15 15 18 23 17 22 26 31 33 29 30 30 28 22
2 1 1 4 6 9 12 13 15 20 22 22 22 25 31 32 35 36 34 30 30 28 26 26 26 25 20 17 15 15 17 18 20 21 22 23 24 25 26 26 26 27 27
3 3 1 1 3 7 9 12 14 16 18 20 21 20 20 20 20 22 24 27 26 25 26 27 25 22 20 20 22 23 23 24 25 26 27 27 25 25 25 24 25 24 24
4 4 3 2 1 3 7 10 13 16 16 16 18 21 21 20 20 22 24 26 28 26 26 27 26 24 22 20 22 23 23 23 22 22 22 23 25 26 28 28 26 27 30
3 4 5 5 3 2 3 7 8 11 12 12 13 14 17 24 27 24 24 25 27 27 29 29 28 27 29 27 23 23 22 24 25 24 23 23 22 22 24 28 28 29 33
5 4 4 5 6 5 3 5 7 5 6 7 9 11 13 15 20 26 31 32 31 34 37 39 39 37 36 31 32 31 26 26 27 27 26 24 24 24 24 23 22 23 22
6 5 5 7 8 7 6 5 8 8 7 8 10 12 13 14 16 20 22 27 31 34 35 36 38 39 34 32 32 35 36 32 32 32 29 28 28 28 28 26 23 23 25
Wind_Direction
218 224 226 226 225 221 227 228 229 229 229 232 234 228 218 227 231 235 235 240 236 234 230 230 232 232 233 231 230 232 235 237 237 234 232 229 227 225 224 232 238 236 229
224 223 216 214 215 215 219 223 226 229 232 237 240 239 238 232 227 227 244 241 229 233 238 231 230 233 232 232 232 232 234 236 234 233 234 233 233 230 231 231 238 243 241
229 227 226 223 217 215 218 222 226 226 229 234 236 234 232 221 229 233 236 230 230 234 230 231 235 239 238 237 236 236 236 236 235 238 236 235 238 240 237 237 241 245 250
236 233 230 228 228 224 221 219 225 224 224 229 232 233 233 231 229 236 236 245 233 232 228 240 241 236 239 240 240 237 235 235 235 235 238 240 235 239 242 242 241 242 248
231 230 229 230 230 230 229 225 221 228 227 234 233 232 232 231 231 235 238 239 222 239 224 233 231 236 239 239 240 240 239 236 237 237 235 236 240 239 242 243 248 247 244
229 229 232 235 233 230 228 231 227 224 232 234 230 228 226 225 228 232 230 227 236 237 240 234 235 237 239 240 242 240 241 238 238 239 238 236 235 240 246 247 247 248 246
226 230 233 232 232 233 235 237 236 237 236 230 226 222 220 224 228 230 230 229 237 233 241 245 244 245 241 243 244 244 238 239 239 240 238 239 237 232 234 236 238 242 247
222 225 229 233 234 235 239 241 242 241 236 225 224 220 220 222 226 230 235 233 235 235 238 252 253 251 244 238 242 245 242 239 238 238 239 237 237 234 235 237 241 245 248
220 222 224 227 229 231 233 233 234 235 232 227 218 219 219 222 227 230 230 234 238 240 240 248 245 248 247 237 236 241 242 238 238 238 239 238 238 238 236 237 239 244 246
217 220 223 227 233 235 224 223 224 226 225 226 222 219 221 222 227 227 233 230 241 231 239 242 246 248 243 237 234 239 238 234 233 233 236 236 238 241 241 241 242 246 249
216 215 218 223 222 222 211 213 218 213 220 227 216 227 230 229 238 243 245 246 247 242 240 244 255 254 248 238 229 233 234 232 230 232 232 235 236 240 242 245 244 248 251
230 220 216 218 221 213 205 210 221 218 230 201 215 205 211 220 236 249 252 248 252 243 245 236 243 245 249 236 241 241 232 228 228 230 232 234 236 239 242 245 247 250 253
230 220 208 209 208 207 213 218 219 214 205 203 207 229 229 235 245 247 248 239 234 236 233 227 240 251 242 236 236 224 224 223 227 229 232 234 236 238 242 245 248 251 253
203 211 204 200 201 204 203 208 214 208 207 204 218 224 219 236 242 244 232 229 231 232 236 241 240 246 242 235 243 244 222 220 225 228 232 233 235 239 242 244 247 249 253
193 194 200 203 196 195 202 213 222 206 205 208 217 216 237 234 245 238 226 209 219 227 225 221 228 238 239 234 240 239 215 219 221 226 230 234 236 237 238 239 244 248 252
188 188 192 203 211 207 195 191 206 205 205 209 217 209 224 233 231 216 211 215 211 212 210 222 225 234 241 236 240 246 230 216 223 227 229 231 236 241 245 245 247 252 251
195 187 188 197 204 216 219 219 214 196 218 229 235 232 230 232 226 218 207 213 209 217 198 215 226 223 227 240 241 236 239 231 225 227 239 235 237 243 247 251 265 249 257
208 201 190 196 202 204 212 222 222 224 228 220 200 238 224 220 217 220 218 226 217 226 219 231 198 206 211 216 212 213 215 229 229 239 238 233 246 244 239 231 239 240 247
221 218 211 199 201 207 211 208 209 218 228 234 223 217 200 217 240 238 231 221 214 221 215 219 209 226 211 207 230 241 260 232 254 249 238 238 246 246 252 248 248 256 257
152 220 236 222 210 203 205 211 207 205 206 211 218 224 239 231 236 225 219 204 223 216 217 211 212 217 219 224 241 244 244 239 258 253 254 258 248 253 261 267 267 270 258
22 41 224 244 242 221 206 201 205 203 208 212 216 218 223 229 222 228 220 227 234 214 217 224 233 227 220 224 228 230 237 245 248 253 255 252 254 255 255 259 262 264 258
323 331 359 324 250 238 226 207 196 199 204 210 215 219 221 219 218 219 220 227 226 228 226 222 223 228 229 229 230 233 239 248 252 255 257 262 260 259 258 260 265 261 257
293 310 319 314 315 246 237 221 196 190 185 195 207 218 225 229 226 222 222 221 219 218 225 227 225 229 234 244 248 246 247 249 250 255 256 258 259 258 257 254 254 249 257
291 295 297 302 298 264 253 242 209 199 199 201 204 209 222 231 235 236 235 230 226 223 223 227 234 241 245 247 260 256 254 255 258 261 260 260 263 264 259 256 256 253 255
329 318 294 291 293 295 279 255 254 228 221 226 232 229 233 239 243 245 244 244 246 244 243 244 246 248 243 242 254 260 260 261 263 265 270 273 275 273 269 262 258 255 255
317 313 312 314 307 305 304 278 260 259 249 244 242 233 230 236 244 247 249 250 250 253 253 252 250 246 238 239 247 244 258 260 261 259 261 268 271 272 270 268 261 256 256